Regional Weather Roundup
Issued by NWS

Home | Current Version | Previous Version | Graphics & Text | Print | Product List | Glossary On
Versions: 1 2 3 4 5 6 7 8 9 10 11 12 13 14 15 16 17 18 19 20 21 22 23 24 25 26 27 28 29 30 31 32 33 34 35 36 37 38 39 40 41 42 43 44 45 46 47 48 49 50
599
ASUS43 KDMX 170001
RWRIA

WEATHER ROUNDUP FOR IOWA
NATIONAL WEATHER SERVICE DES MOINES IA
600 PM CST TUE JAN 16 2018

NOTE: "FAIR" INDICATES FEW OR NO CLOUDS BELOW 12,000 FEET WITH NO
SIGNIFICANT WEATHER AND/OR OBSTRUCTIONS TO VISIBILITY.

* - THESE STATIONS ARE NOT NWS STATIONS...THUS NOT UNDER NWS
QUALITY CONTROL.  THEY ALSO DO NOT REPORT WEATHER SUCH
AS PRECIPITATION OR FOG.

IAZ001>003-012>014-020>022-031>034-043>046-170100-
   NORTHWEST IOWA

CITY           SKY/WX    TMP DP  RH WIND       PRES   REMARKS
CARROLL *      CLEAR      1  -2  85 W5        30.65S WCI  -8
CHEROKEE *     CLOUDY     3  -2  82 CALM      30.65F
DENISON *      CLEAR      3  -2  78 W5        30.67S WCI  -6
LE MARS *      CLOUDY     3   0  85 CALM      30.65F
ORANGE CITY *  CLOUDY     0  -2  92 W6        30.62S WCI -12
SHELDON *      CLOUDY     1  -2  85 W5        30.61S WCI  -8
SIOUX CITY     CLOUDY     5  -1  76 W5        30.67F WCI  -4
6HR MIN TEMP:   1; 6HR MAX TEMP:  10;

SPENCER        CLOUDY    -1  -5  82 W7        30.62F WCI -14
6HR MIN TEMP:  -1; 6HR MAX TEMP:   8;

STORM LAKE *   CLEAR      1  -2  85 W6        30.61F WCI -10
$$

IAZ055>058-069>071-079>083-090>094-170100-
   SOUTHWEST IOWA

CITY           SKY/WX    TMP DP  RH WIND       PRES   REMARKS
ATLANTIC *     CLEAR      3  -2  78 CALM      30.67F
AUDUBON *      CLEAR      3  -2  78 CALM      30.65S
CLARINDA *     FLURRIES   5   1  85 N5          N/A  WCI  -4
COUNCIL BLFS * CLEAR      7   3  85 W5        30.66S WCI  -2
CRESTON *      CLEAR      1  -2  85 NW8       30.66S WCI -12
HARLAN  *      CLEAR      3  -2  78 NW3       30.70S
LAMONI         CLEAR      4  -1  80 NW7       30.66S WCI  -8
6HR MIN TEMP:   4; 6HR MAX TEMP:   9;

RED OAK *      CLEAR      1  -2  85 CALM      30.69F
SHENANDOAH *   CLEAR      7   1  78 CALM      30.71F
$$

IAZ047>049-059>061-072>074-084-170100-
   CENTRAL IOWA

CITY           SKY/WX    TMP DP  RH WIND       PRES   REMARKS
AMES           CLEAR      1  -3  83 NW6       30.67S WCI -10
6HR MIN TEMP:   1; 6HR MAX TEMP:   8; 6HR PCP: TRACE;

ANKENY *       CLEAR      3  -2  78 NW6       30.70S WCI  -8
BOONE *        CLEAR      1  -4  78 NW5       30.64S WCI  -8
CHARITON *     CLEAR      1  -2  85 NW6       30.66S WCI -10
DES MOINES     PTCLDY     3  -2  79 NW6       30.68R WCI  -8
6HR MIN TEMP:   3; 6HR MAX TEMP:   6; 6HR PCP: TRACE;

GRINNELL*      CLEAR      4   0  83 NW12      30.65S WCI -12
KNOXVILLE *    CLEAR      3  -6  66 W8        30.66S WCI -10
MARSHALLTOWN   PTCLDY     1  -3  83 NW8       30.65R WCI -13
6HR MIN TEMP:   1; 6HR MAX TEMP:   8;

NEWTON *       CLOUDY     3   0  85 W6        30.66S WCI  -8
PELLA *        CLEAR      5  -1  76 W7        30.68S WCI  -7
PERRY *          N/A      1  -3  81 W7        30.68R WCI -11
$$

IAZ004>006-015-016-023>025-035-036-170100-
   NORTH CENTRAL IOWA

CITY           SKY/WX    TMP DP  RH WIND       PRES   REMARKS
ALGONA *       CLOUDY     0 N/A N/A W5        30.62S WCI -10
CLARION *      CLEAR      0  -4  85 W6        30.64S WCI -12
ESTHERVILLE    CLOUDY     0  -3  87 W6        30.61S WCI -12
6HR MIN TEMP:  -2; 6HR MAX TEMP:   6;

FORT DODGE *   CLOUDY     0  -7  72 CALM      30.65S
MASON CITY     CLEAR     -1  -6  79 NW8       30.63S WCI -15
6HR MIN TEMP:  -2; 6HR MAX TEMP:   5;

FOREST CITY *    N/A      1  -4  78 CALM      30.61S
WEBSTER CITY * CLEAR      0  -8  71 NW7       30.63S WCI -13
IOWA FALLS *   MOCLDY     3  -1  81 NW12      30.64F WCI -13
$$

IAZ007>011-017>019-026>030-037>042-050>054-066-170100-
   NORTHEAST IOWA

CITY           SKY/WX    TMP DP  RH WIND       PRES   REMARKS
CEDAR RAPIDS     N/A      5  -1  76 NW14      30.62S WCI -12
6HR MIN TEMP:   5; 6HR MAX TEMP:  11;

CHARLES CITY * CLOUDY     5   1  85 NW8       30.62S WCI  -8
CLINTON *        N/A      7   4  87 W10       30.60R WCI  -8
DECORAH *        N/A      3   0  85 W8        30.57S WCI -10
DUBUQUE          N/A      7   3  84 SW6       30.56S WCI  -3
6HR MIN TEMP:   7; 6HR MAX TEMP:  18;

MONTICELLO *     N/A      7   1  78 W8        30.61S WCI  -6
OELWEIN *      CLOUDY     3   1  92 NW7       30.61S WCI  -9
WATERLOO       CLOUDY     5   0  79 W6        30.64S WCI  -6
6HR MIN TEMP:   4; 6HR MAX TEMP:   8;

$$

IAZ064-065-067-068-078-170100-
   EAST CENTRAL IOWA

CITY           SKY/WX    TMP DP  RH WIND       PRES   REMARKS
DAVENPORT        N/A     11   4  73 W14       30.62R WCI  -5
6HR MIN TEMP:  11; 6HR MAX TEMP:  17; 6HR PCP: TRACE;

IOWA CITY        N/A      8  -1  66 W8        30.67R WCI  -4
6HR MIN TEMP:   8; 6HR MAX TEMP:  13; 6HR PCP: TRACE;

MT. PLEASANT * CLEAR      5   0  78 W7        30.67R WCI  -7
MUSCATINE *      N/A      9   3  78 W12       30.67R WCI  -6
QUAD CITIES      N/A     12   5  73 W10       30.61R WCI  -1
6HR MIN TEMP:  12; 6HR MAX TEMP:  17; 6HR PCP: TRACE;

$$

IAZ062-063-075>077-085>089-095>099-170100-
   SOUTHEAST IOWA

CITY           SKY/WX    TMP DP  RH WIND       PRES   REMARKS
BURLINGTON     CLEAR      6  -1  73 W6        30.64S WCI  -4
6HR MIN TEMP:   6; 6HR MAX TEMP:  12;

FAIRFIELD *    CLEAR      5  -2  72 W8        30.66S WCI  -8
FORT MADISON * PTCLDY     7   1  78 W7        30.66S WCI  -5
KEOKUK *       CLEAR      7   0  72 NW5       30.66S WCI  -2
OSKALOOSA *      N/A      2  -1  85 NW9       30.67R WCI -12
OTTUMWA        PTCLDY     4  -1  80 NW6       30.67R WCI  -7
6HR MIN TEMP:   3; 6HR MAX TEMP:   8;

WASHINGTON *   CLEAR      5   1  85 W8        30.67R WCI  -8
$$

ABBREVIATIONS USED IN REMARKS
   TC - TEMPERATURES IN CELSIUS
  WCI - WIND CHILL INDEX
   HX - HEAT INDEX
  VSB - VISIBILITY
$$





USA.gov is the U.S. government's official web portal to all federal, state and local government web resources and services.